Location: Unspecified
(36.5600°N, 136.6600°E)
Time: 13:50:04
(UTC+09:00)

ISS - Pass Details

Date: 26 June 2024
Orbit: 410 x 424 km, 51.6° (Epoch: 17 July)

Event Time Altitude Azimuth Distance (km) Brightness Sun altitude
Exits shadow 02:13:43 60° 41° (NE) 478 -3.3 -21.9°
Drops below altitude 10° 02:16:31 10° 48° (NE) 1,489 0.1 -21.6°
Sets 02:18:38 0° 49° (NE) 2,358 1.4 -21.3°
